This is the latest recevied weather packets stored in our database for station/object KE8WMS. If no packets are shown the sender has not sent any weather packets the latest 10 day(s).
| Time | Temp. | Humidity | Pressure | Rain* | Wind** | Luminosity | Snow |
|---|---|---|---|---|---|---|---|
| 1787594103 | 20.56° C | 70% | 1012.8 hPa | 0 mm | - | 875 W/m² | - |
| 1787593798 | 20.56° C | 69% | 1012.4 hPa | 0 mm | - | 168 W/m² | - |
| 1787593493 | 21.11° C | 69% | 1012.3 hPa | 0 mm | - | 241 W/m² | - |
| 1787593188 | 21.11° C | 67% | 1012.5 hPa | 0 mm | - | 909 W/m² | - |
| 1787592883 | 21.67° C | 68% | 1012.4 hPa | 0 mm | - | 820 W/m² | - |
| 1787592578 | 21.11° C | 66% | 1012.3 hPa | 0 mm | - | 833 W/m² | - |
| 1787592277 | 20.56° C | 69% | 1012.6 hPa | 0 mm | - | 797 W/m² | - |
| 1787591974 | 20.56° C | 69% | 1012.2 hPa | 0 mm | - | 171 W/m² | - |
| 1787591669 | 20.56° C | 68% | 1012.4 hPa | 0 mm | - | 768 W/m² | - |
| 1787591365 | 20° C | 69% | 1012.2 hPa | 0 mm | - | 748 W/m² | - |
| 1787591065 | 20.56° C | 70% | 1012.3 hPa | 0 mm | - | 152 W/m² | - |
| 1787590761 | 20° C | 72% | 1012.2 hPa | 0 mm | - | 124 W/m² | - |
| 1787590456 | 20.56° C | 72% | 1012.3 hPa | 0 mm | - | 756 W/m² | - |
| 1787590151 | 20° C | 71% | 1012.5 hPa | 0 mm | - | 790 W/m² | - |
| 1787589847 | 19.44° C | 73% | 1012.5 hPa | 0 mm | - | 888 W/m² | - |
| 1787589543 | 19.44° C | 73% | 1012.6 hPa | 0 mm | - | 804 W/m² | - |
| 1787589237 | 20° C | 70% | 1012.8 hPa | 0 mm | - | 180 W/m² | - |
| 1787588933 | 20° C | 72% | 1012.6 hPa | 0 mm | - | 629 W/m² | - |
| 1787588629 | 19.44° C | 72% | 1012.8 hPa | 0 mm | - | 556 W/m² | - |
| 1787588324 | 18.89° C | 73% | 1012.5 hPa | 0 mm | - | 190 W/m² | - |
| 1787588019 | 18.89° C | 74% | 1012.5 hPa | 0 mm | - | 197 W/m² | - |
| 1787587715 | 18.89° C | 74% | 1012.8 hPa | 0 mm | - | 225 W/m² | - |
| 1787587410 | 19.44° C | 73% | 1012.6 hPa | 0 mm | - | 151 W/m² | - |
| 1787587109 | 20° C | 74% | 1012.5 hPa | 0 mm | - | 184 W/m² | - |
| 1787586809 | 18.89° C | 76% | 1012.5 hPa | 0 mm | - | 225 W/m² | - |
* Rain latest hour (hover to see other rain measurements)
** Current wind speed in m/s (hover to see current wind gust speed)